Location: G�ndlingen
(48.0142°N, 7.6396°E)
Time: 01:24:59
(UTC+00:00)

Elektron 1 - Pass Details

Date: 05 July 2020
Orbit: 405 x 6310 km, 60.8° (Epoch: 11 August)

Event Time Altitude Azimuth Distance (km) Brightness Sun altitude
Exits shadow 22:21:05 29° 215° (SW) 917 5.1 -17.4°
Maximum altitude 22:22:40 78° 134° (SE) 577 4.2 -17.5°
Drops below altitude 10° 22:28:02 10° 47° (NE) 2,673 8.1 -17.8°
Sets 22:31:46 0° 47° (NE) 4,318 9.3 -17.9°
